Wetbulb
35.92 36.38 36.88 37.44 37.84 36.89 36.10 36.78 37.79 37.07 35.48 34.11 33.93 33.55 33.33 33.79 34.38 34.27 33.75 33.30 34.32 34.68 34.54 34.12 34.21 33.95 33.19 31.68 31.05 30.68 30.37 29.89 29.82 31.29 32.53 31.64 29.59 28.40 27.66 26.99 26.50 26.29 26.42 26.69 26.20 26.04 25.88 25.48 26.85 28.31 29.73 30.85 29.78 28.49 27.56 27.59 26.72 26.61 26.85 27.14 27.42 26.94 26.43 26.71 26.95 27.02 26.99 26.92 27.44
34.91 36.17 38.08 40.71 39.81 38.16 36.90 37.57 37.70 36.80 35.26 33.67 33.59 32.99 32.72 33.56 34.29 34.09 33.31 32.54 33.53 33.75 33.61 33.61 33.80 32.32 30.62 30.29 30.93 30.35 29.45 29.06 28.77 29.46 30.08 29.37 28.03 27.14 26.64 26.33 25.79 26.27 26.86 26.35 25.79 26.16 26.38 25.44 26.61 28.32 29.60 29.78 28.85 27.90 27.46 28.13 26.87 26.51 26.54 26.23 26.43 26.49 26.62 27.06 27.09 27.05 26.89 27.03 26.51
34.38 35.73 37.04 37.59 36.88 36.62 36.58 36.25 35.10 33.87 32.73 32.21 31.93 31.98 32.21 32.85 33.59 33.81 33.49 32.62 31.67 31.26 31.49 32.35 32.72 31.75 30.23 29.03 28.58 28.31 28.14 28.03 27.81 27.96 28.23 28.37 27.68 26.92 26.35 26.03 25.34 26.11 26.99 26.72 25.78 25.98 26.24 25.41 27.26 29.67 31.17 30.46 28.71 28.16 27.87 27.07 27.63 27.45 26.90 26.35 26.52 27.09 27.91 28.97 28.17 27.48 27.22 27.85 26.68
33.93 34.97 35.62 35.70 35.69 35.89 36.15 36.10 34.39 32.92 32.06 32.06 30.36 30.63 31.57 31.93 32.48 32.61 31.94 30.51 30.26 30.40 30.57 30.69 31.12 31.16 30.81 29.99 28.78 27.81 27.81 29.51 29.67 29.02 28.32 28.25 27.74 27.08 26.30 25.62 25.46 25.34 25.20 24.98 24.89 24.85 24.83 24.65 26.85 29.07 30.06 28.78 27.71 27.66 28.10 28.03 27.57 27.49 27.43 26.91 27.24 27.64 28.26 29.42 28.68 28.53 28.61 28.64 27.23
33.63 34.09 34.46 34.68 34.69 34.60 34.44 34.20 33.71 32.64 31.59 31.08 30.69 30.60 30.68 30.94 31.61 31.03 30.60 31.68 31.69 31.38 30.66 29.55 29.50 29.89 30.43 30.70 28.83 27.59 27.45 28.86 31.89 30.75 28.35 27.61 27.18 26.48 25.72 24.98 25.40 25.39 25.07 24.69 24.66 24.69 24.59 24.29 26.64 28.03 28.48 27.84 28.22 28.35 28.08 27.04 25.91 25.84 26.35 27.34 28.40 28.60 28.66 29.04 28.97 28.93 29.01 29.28 27.92
33.42 32.71 32.23 32.19 32.42 32.51 32.40 32.22 32.11 31.66 31.20 31.04 30.86 30.76 30.76 30.99 30.68 30.73 30.94 31.75 31.39 30.23 29.61 30.59 31.42 32.57 32.62 30.31 27.91 27.00 26.73 26.59 27.32 26.96 26.37 26.46 26.27 25.82 25.39 25.13 25.05 24.94 24.83 24.69 24.53 24.44 24.35 24.29 26.96 28.03 28.30 28.24 28.14 27.76 26.81 24.97 25.20 25.27 25.61 26.75 27.83 28.28 28.29 28.22 28.72 28.79 28.75 28.60 27.53
33.10 32.27 31.70 31.36 31.54 31.62 31.37 30.61 30.14 29.73 29.63 29.91 30.48 30.70 30.50 29.93 29.43 29.29 29.48 29.86 29.30 29.07 30.14 33.29 32.61 31.60 30.19 28.32 27.17 26.73 26.61 26.42 25.63 25.29 25.24 25.81 25.72 26.12 26.41 25.95 25.18 24.90 24.79 24.78 24.57 24.38 24.22 24.09 26.80 28.69 30.21 32.11 31.14 28.60 25.75 24.02 24.73 25.28 25.78 26.56 27.53 28.19 28.15 27.27 27.92 28.22 27.98 27.08 26.48
32.42 32.30 31.83 31.16 31.14 31.10 30.78 30.10 29.72 29.59 29.91 30.67 30.73 30.39 29.78 28.82 28.59 28.31 28.02 27.68 28.20 29.21 30.53 32.02 29.24 27.54 26.72 26.43 26.77 26.77 26.68 26.08 25.89 25.56 25.26 25.43 25.52 25.56 25.49 25.21 25.12 25.07 24.98 24.83 24.83 24.63 24.53 24.75 27.07 28.18 28.88 30.03 30.16 28.59 26.20 23.89 23.96 24.54 25.26 25.78 26.89 27.35 27.48 27.26 27.12 27.31 27.37 26.67 25.97
32.08 31.55 30.88 30.26 30.25 30.20 29.86 29.18 29.30 29.90 30.44 30.25 29.90 29.30 28.70 28.21 28.11 27.83 27.81 28.37 30.23 30.60 30.04 28.91 27.17 26.10 25.55 25.52 25.90 26.09 26.17 26.11 26.27 26.12 25.87 25.75 26.09 26.13 26.04 25.85 26.01 26.01 25.81 25.29 25.29 24.83 24.76 25.49 27.28 27.98 28.42 28.97 28.94 27.85 26.14 24.15 23.95 24.14 24.63 25.50 26.28 26.79 27.04 26.99 26.65 26.45 26.19 25.72 25.08
32.06 30.99 30.22 30.13 29.59 29.31 28.94 27.84 28.51 29.19 29.58 29.19 28.31 28.20 29.24 32.36 30.28 28.73 28.47 30.24 30.83 29.66 27.91 26.87 26.05 25.58 25.47 25.64 25.90 26.11 26.19 26.22 26.37 26.20 26.46 27.52 28.04 27.53 26.79 26.60 26.64 26.65 26.49 25.96 25.59 24.98 24.67 25.64 26.58 26.81 26.73 26.87 26.42 25.74 24.86 23.94 24.06 24.08 24.69 26.23 27.02 26.95 26.50 26.26 25.96 25.65 25.42 25.49 24.63
32.21 31.32 30.85 30.74 29.77 29.51 29.07 27.92 28.74 29.08 28.88 28.05 27.22 27.15 28.33 31.53 29.51 28.76 28.81 29.52 28.20 27.23 26.63 26.29 25.85 25.92 26.20 26.42 26.54 26.77 26.85 26.42 26.33 26.22 26.29 26.64 27.68 27.32 26.46 26.06 25.90 25.96 25.96 25.74 25.33 25.12 25.21 26.04 26.18 25.90 25.56 25.71 25.43 25.10 24.62 23.95 23.94 23.83 24.08 24.92 25.67 25.74 25.50 25.64 25.38 25.00 24.77 24.81 23.99
32.01 31.16 30.43 29.78 28.88 28.64 28.59 28.23 28.51 28.55 28.25 27.67 27.03 26.41 26.19 26.69 26.44 27.49 28.30 27.05 26.90 26.98 26.96 26.24 26.07 26.23 26.63 27.00 26.90 27.75 28.05 26.47 26.07 26.06 26.13 26.06 25.84 25.68 25.46 25.23 25.10 25.20 25.25 25.05 24.76 25.12 25.61 25.65 25.37 25.42 25.38 25.13 25.26 25.39 25.20 24.41 24.10 23.87 23.75 23.93 24.42 24.61 24.67 24.88 24.64 24.45 24.31 24.02 23.49
31.31 30.38 29.46 28.30 27.56 27.52 27.81 27.94 27.39 27.12 27.07 27.07 26.72 26.30 25.92 25.74 26.35 27.21 27.45 26.18 27.72 27.73 27.09 26.68 27.09 26.92 26.71 26.97 26.88 26.84 26.66 26.16 25.70 25.91 26.28 26.01 25.56 25.18 24.88 24.70 24.62 24.76 24.76 24.64 24.33 24.62 25.02 24.93 24.80 24.76 24.76 24.59 25.08 25.42 25.36 24.48 24.02 23.80 23.68 23.56 23.56 23.74 24.09 24.41 24.15 23.94 23.74 23.38 23.27
30.17 29.48 28.55 27.29 27.04 27.28 27.73 27.64 27.17 26.74 26.44 26.50 26.32 26.06 25.68 25.25 26.58 27.35 27.32 26.32 27.12 27.05 26.66 26.56 27.89 28.25 27.99 27.28 26.85 26.46 26.19 25.78 25.39 25.20 25.26 25.78 25.31 24.83 24.53 24.40 24.11 24.13 24.28 24.19 24.05 24.15 24.22 24.35 24.27 24.18 24.15 24.04 24.33 24.45 24.34 23.81 23.59 23.50 23.43 23.29 23.43 23.62 23.97 24.52 24.06 23.56 23.23 22.89 23.38
29.20 28.34 27.40 26.57 26.78 27.25 27.55 27.55 27.55 27.17 26.87 26.86 26.36 25.74 25.31 25.17 26.95 27.86 27.66 26.10 26.15 26.10 26.02 26.02 27.13 28.26 28.65 27.75 26.60 25.94 25.55 25.22 24.93 24.90 25.07 25.64 25.03 24.56 24.30 24.23 23.84 23.75 23.78 23.74 23.69 23.70 23.74 23.78 23.78 23.70 23.59 23.55 23.61 23.61 23.45 23.25 23.03 22.89 22.89 22.98 23.39 23.81 24.09 24.35 23.81 23.34 23.06 22.85 22.95
28.45 27.38 26.55 26.51 26.98 27.33 27.44 27.29 27.28 27.18 27.08 27.32 26.20 25.46 25.09 25.30 26.24 27.43 27.77 26.35 25.97 25.87 26.01 26.25 26.44 26.49 26.87 28.06 27.30 26.13 25.22 24.86 24.72 24.70 24.78 24.85 24.73 24.57 24.40 24.22 24.06 23.88 23.69 23.51 23.49 23.35 23.26 23.11 23.20 23.25 23.19 23.16 23.17 23.13 23.02 22.92 22.73 22.60 22.60 22.92 23.23 23.60 24.04 24.57 24.37 24.00 23.68 23.40 23.56
27.97 26.85 26.22 26.69 27.37 27.54 27.31 26.71 26.39 26.51 26.68 26.79 25.90 25.43 25.15 25.35 25.59 27.27 28.80 28.60 27.01 26.51 26.59 26.58 26.41 26.19 26.39 27.65 28.10 27.27 25.91 24.99 24.85 24.89 24.98 25.10 24.99 24.79 24.54 24.32 24.32 24.01 23.55 23.05 23.01 22.97 22.79 22.51 22.58 22.58 22.55 22.57 22.61 22.70 22.67 22.58 22.86 22.92 22.94 23.24 23.47 23.64 24.13 25.48 25.47 24.88 24.21 23.87 24.66
27.76 26.58 26.15 26.91 27.54 27.50 27.04 26.22 25.85 25.93 26.08 26.26 25.83 25.44 25.15 25.21 25.66 26.81 28.23 29.31 27.32 26.67 26.64 26.59 26.10 26.04 26.16 26.38 26.40 27.03 27.10 25.61 25.28 25.21 25.16 25.11 24.78 24.57 24.32 24.07 24.10 23.64 22.97 22.34 22.27 22.46 22.65 22.61 22.29 22.15 22.01 22.01 22.14 22.36 22.55 22.61 23.22 23.33 23.35 23.75 23.79 23.79 24.00 24.60 24.59 24.62 24.64 24.42 25.74
27.80 26.78 26.47 27.14 27.38 27.40 27.41 27.67 26.75 26.19 25.81 25.67 25.43 25.26 25.07 24.98 25.25 25.56 26.04 26.71 27.24 26.89 26.44 26.44 26.03 25.93 25.95 26.04 25.25 26.41 27.67 26.89 25.67 25.07 24.83 24.58 24.22 23.93 23.78 23.61 23.30 22.71 22.05 21.53 21.53 21.67 21.95 22.17 22.06 21.92 21.84 21.92 21.96 22.18 22.51 22.61 23.28 23.60 23.66 23.83 23.82 23.82 23.90 24.03 24.16 24.62 25.04 24.92 25.93
28.25 27.65 27.41 27.47 27.13 27.10 27.41 28.16 27.15 26.18 25.37 24.94 24.94 25.12 25.15 24.95 24.96 25.39 25.88 25.83 27.17 26.77 25.87 25.85 25.88 25.88 25.71 25.55 24.94 25.29 26.09 27.14 25.46 24.72 24.40 24.13 23.87 23.63 23.39 23.27 22.70 21.98 21.22 20.74 20.74 20.78 21.09 21.44 21.62 21.78 21.83 22.03 22.39 22.64 22.86 23.13 23.47 23.55 23.67 24.18 24.22 24.31 24.53 24.98 25.07 25.14 25.26 25.35 25.61
28.60 28.14 27.84 27.27 26.80 26.65 26.53 26.43 25.80 25.23 24.80 24.63 24.86 25.05 25.09 24.79 25.02 25.56 26.22 27.14 27.08 26.19 25.39 25.39 25.52 25.61 25.57 25.31 25.05 24.70 25.09 26.98 25.49 24.67 24.37 24.17 24.28 24.12 23.82 23.59 22.58 21.64 20.79 20.35 20.35 20.29 20.52 21.13 21.44 21.80 22.20 22.49 22.95 23.35 23.79 24.33 24.40 24.19 24.31 25.19 25.55 25.56 25.57 25.84 25.83 25.83 25.83 26.09 26.48
28.56 27.93 27.24 26.40 26.05 25.69 25.27 24.61 24.31 24.25 24.42 24.54 24.67 24.85 24.98 24.98 25.33 25.52 25.83 26.50 26.10 25.65 25.31 25.29 25.33 25.31 25.28 25.10 25.02 24.70 24.94 26.27 25.02 24.48 24.23 24.01 24.24 24.39 24.24 23.83 22.35 21.21 20.45 20.09 20.10 19.90 19.90 20.34 20.93 21.19 21.59 22.58 22.86 23.64 24.50 25.17 25.34 25.34 25.34 25.55 25.82 26.01 26.09 26.23 26.48 26.66 26.79 27.19 27.64
28.28 27.06 25.96 25.17 25.47 26.58 27.03 25.18 24.02 24.00 24.42 24.67 24.72 24.90 25.12 25.34 25.24 25.14 24.95 24.86 26.04 26.01 25.52 25.18 25.25 25.05 24.72 24.45 24.27 24.10 24.05 24.27 23.96 23.83 23.61 23.16 23.23 23.20 22.98 22.50 21.34 20.60 20.57 21.89 21.06 20.28 19.79 19.91 20.65 21.13 21.70 22.89 23.26 24.09 24.95 25.38 25.93 26.00 25.91 25.71 25.99 26.13 26.27 26.48 26.71 27.18 27.68 28.42 28.93
27.36 26.10 25.10 24.54 24.46 25.15 25.47 24.67 24.40 24.69 25.14 25.49 25.39 25.39 25.43 25.43 25.18 25.02 24.85 24.63 25.15 25.12 24.98 25.23 25.33 24.91 24.22 23.55 23.17 23.01 23.07 23.13 23.54 23.74 23.56 22.85 22.63 22.33 21.93 21.37 20.79 20.99 21.78 23.09 23.59 23.94 24.50 25.86 25.54 25.56 25.77 26.03 26.12 26.35 26.45 26.22 26.35 26.26 26.18 26.15 26.34 26.53 26.67 26.94 26.94 27.65 28.43 28.90 29.64
26.25 25.77 25.26 24.45 24.16 24.12 24.32 24.73 25.42 25.89 26.12 25.96 25.61 25.39 25.42 25.42 25.27 25.22 25.17 25.16 25.21 25.09 24.88 24.65 24.42 24.05 23.60 23.17 22.66 22.39 22.32 22.32 22.94 23.37 23.53 23.39 22.94 22.34 21.92 21.61 22.18 22.66 23.49 25.47 30.56 33.92 35.78 36.33 34.77 32.87 30.93 29.12 28.38 27.95 27.25 25.79 25.69 25.97 26.55 27.04 27.33 27.46 27.59 27.39 27.31 27.79 28.46 28.75 28.88
25.62 25.50 25.21 24.41 24.30 24.56 24.97 25.55 25.96 26.09 25.99 25.47 25.21 25.21 25.30 25.33 25.45 25.27 25.12 25.50 25.69 25.47 25.02 24.58 24.03 24.92 25.80 25.12 24.09 23.35 22.87 22.62 22.63 22.67 23.07 24.07 23.61 23.17 23.02 23.48 25.00 24.22 24.45 28.66 33.82 36.89 38.55 39.45 39.63 38.25 35.68 32.08 30.41 29.18 28.07 26.84 26.16 26.45 27.07 27.38 27.91 28.07 28.15 28.30 28.05 27.76 27.86 28.85 27.94
25.84 25.69 25.21 24.29 24.85 25.50 25.86 25.59 25.64 25.59 25.49 25.33 25.51 25.54 25.39 24.96 24.98 25.00 25.21 25.65 25.56 25.20 24.76 24.56 24.09 26.73 28.76 26.61 25.12 24.31 23.92 23.70 23.16 22.70 22.63 23.16 23.75 23.92 24.28 25.60 25.96 25.87 27.20 31.73 35.64 37.96 39.17 39.93 40.37 40.13 38.66 35.34 32.24 30.41 29.49 29.30 27.96 27.21 26.98 27.24 27.39 27.48 27.58 27.77 27.79 27.72 27.67 27.62 27.13
26.61 26.22 25.46 24.95 25.92 26.28 25.99 25.21 25.42 25.61 25.78 25.89 25.88 25.68 25.33 24.83 24.88 25.07 25.26 25.37 25.02 24.80 24.80 24.92 25.47 26.21 26.32 25.08 24.56 24.08 23.81 23.69 23.69 23.43 23.07 22.74 23.42 23.91 24.51 25.81 25.71 27.23 30.45 35.08 37.39 38.78 39.62 40.15 40.41 40.46 39.80 38.14 34.61 31.81 29.84 28.68 28.26 27.84 27.47 27.28 27.07 26.64 26.48 26.88 27.18 27.19 26.98 26.60 26.45
27.19 26.70 26.30 26.49 27.01 26.67 25.99 25.46 25.80 25.99 26.06 25.86 25.51 25.30 25.18 25.02 25.12 25.13 25.14 25.11 25.10 25.34 25.63 25.62 27.03 26.23 24.92 24.64 24.53 24.25 24.03 23.88 24.12 24.13 23.87 23.17 23.02 23.61 24.53 25.22 25.59 28.20 32.15 36.61 38.14 39.04 39.54 39.94 40.19 40.37 40.25 39.77 36.89 33.51 30.56 29.24 29.15 28.83 28.44 28.66 27.65 27.22 27.05 27.05 27.29 27.07 26.73 26.31 26.26
27.30 27.24 27.33 27.49 27.33 26.97 26.49 26.19 26.13 26.01 25.75 25.43 25.16 24.98 24.98 25.16 25.14 25.20 25.18 25.21 25.28 25.81 26.23 25.93 25.99 25.56 25.17 25.16 25.23 25.24 25.30 25.46 25.27 24.83 24.16 23.24 23.18 23.99 25.40 27.06 26.81 28.73 32.20 36.56 38.01 38.87 39.37 39.72 40.02 40.20 40.29 40.26 38.31 34.98 31.49 29.37 28.63 28.36 28.41 28.90 27.41 26.41 25.94 26.49 25.72 25.45 25.74 26.56 26.18
27.16 27.41 27.58 27.68 27.37 27.16 26.90 26.53 26.00 25.63 25.26 25.17 24.90 24.91 25.11 25.49 25.52 25.53 25.53 25.35 25.50 26.62 27.45 26.37 25.44 25.19 25.31 25.50 25.69 25.83 25.87 26.00 25.57 24.95 24.20 23.12 25.62 26.75 26.93 26.75 26.05 28.16 32.07 36.32 37.78 38.72 39.27 39.68 39.90 40.08 40.22 40.26 38.81 35.53 31.87 29.60 28.53 27.85 27.48 27.34 26.45 25.69 25.20 25.07 24.84 25.17 25.46 25.52 25.86
26.80 27.10 27.37 27.59 27.40 27.15 26.77 26.21 25.65 25.25 24.88 24.61 24.58 24.86 25.21 25.54 25.59 25.54 25.68 26.00 26.48 26.63 26.40 25.87 25.49 25.47 25.62 25.68 25.74 25.67 25.65 25.67 25.58 25.43 25.24 25.02 25.28 25.33 25.73 26.71 25.71 27.88 31.83 36.14 37.65 38.65 39.28 39.73 39.91 40.01 40.06 40.06 38.95 35.57 31.69 29.50 28.08 27.04 26.21 25.48 24.98 24.50 24.66 26.15 26.35 25.83 25.34 25.65 25.83
26.37 26.59 26.92 27.30 27.30 27.03 26.56 25.88 25.33 24.89 24.58 24.35 24.41 24.88 25.31 25.50 25.35 25.31 25.50 26.10 26.74 26.33 25.66 25.74 25.81 26.00 26.12 26.18 26.09 25.94 25.92 26.22 26.53 27.37 28.08 28.04 26.70 25.74 25.74 27.11 26.35 29.17 33.35 36.68 38.04 38.81 39.39 39.70 39.83 39.92 39.93 39.94 38.41 34.99 31.00 28.66 27.72 26.72 25.84 25.11 24.50 24.26 24.32 24.59 25.82 26.19 26.11 26.11 26.18
25.95 26.21 26.49 26.87 27.12 26.94 26.53 25.91 25.27 24.89 24.72 24.60 24.88 25.16 25.47 25.73 25.80 25.90 26.21 26.94 26.56 25.96 25.50 25.88 26.31 26.47 26.54 26.49 26.47 26.44 26.92 28.67 28.06 27.15 26.27 25.76 24.76 24.44 24.86 26.08 27.13 30.68 34.68 37.10 38.24 38.91 39.30 39.48 39.65 39.70 39.63 39.65 37.33 33.65 29.83 27.56 26.89 26.18 25.61 25.37 25.29 25.26 25.29 25.45 25.77 26.09 26.37 26.19 26.49
25.92 26.27 26.40 26.43 26.53 26.53 26.22 25.95 25.38 25.10 25.12 25.42 25.55 25.69 25.86 25.93 26.22 26.50 27.09 28.34 28.03 26.63 25.30 25.29 25.66 25.83 25.93 25.69 25.65 25.87 26.65 28.03 27.71 27.02 26.04 24.86 23.77 23.97 24.79 25.74 26.97 30.59 34.67 37.13 38.05 38.72 39.11 39.25 39.35 39.32 39.17 38.70 35.32 31.60 28.40 26.63 26.05 25.65 25.50 25.86 26.08 25.92 25.59 25.56 25.82 26.15 26.38 26.44 26.39
26.40 26.71 26.78 26.53 26.34 26.34 26.22 26.14 25.68 25.53 25.64 25.90 26.22 26.45 26.49 26.53 26.52 26.71 27.63 29.58 28.77 27.11 25.61 25.24 25.21 25.29 25.29 25.21 25.16 26.17 27.21 27.17 27.17 26.97 26.49 25.61 24.54 24.23 24.59 25.48 26.19 29.65 33.87 36.71 37.73 38.36 38.72 38.95 39.05 39.00 38.54 37.07 33.21 29.87 27.52 26.34 26.34 25.99 25.69 25.91 26.30 26.15 25.96 25.87 26.12 26.31 26.60 27.02 27.14
26.66 27.03 27.14 26.86 26.75 26.69 26.63 26.47 26.16 26.11 26.22 26.61 26.98 27.17 27.29 27.28 27.06 26.82 27.29 28.99 27.13 26.00 25.46 25.35 25.42 25.43 25.55 25.70 26.20 26.95 27.38 26.84 26.62 26.61 26.84 27.28 26.37 25.72 25.64 26.22 25.93 28.48 32.27 35.76 37.06 37.83 38.29 38.61 38.73 38.62 37.68 34.94 31.15 28.79 27.53 26.94 27.11 26.75 26.28 26.14 26.30 26.14 26.08 26.66 26.53 26.41 26.57 27.30 28.28
26.81 27.13 27.39 27.42 27.32 27.28 27.10 26.84 26.72 26.81 27.06 27.45 27.59 27.59 27.63 27.49 27.42 27.14 27.47 29.35 26.75 25.65 25.47 25.37 25.45 25.70 26.00 26.27 26.84 27.02 26.80 26.49 26.64 26.72 26.84 27.03 26.75 26.30 25.95 26.08 26.05 27.71 30.67 34.56 36.36 37.40 38.00 38.37 38.49 38.37 37.15 34.05 30.29 28.55 28.06 27.96 27.38 27.22 27.38 27.63 27.50 26.88 26.71 27.64 27.64 27.53 27.68 28.38 30.83
27.07 27.43 27.74 27.93 27.80 27.73 27.58 27.22 27.28 27.54 27.79 28.01 28.07 27.92 27.74 27.42 27.66 27.98 28.53 29.54 27.02 25.98 25.78 25.83 26.04 26.47 27.00 27.59 27.90 27.38 26.61 26.09 26.45 27.09 27.42 27.01 27.03 27.81 28.36 27.58 27.19 28.24 30.65 34.33 36.19 37.27 37.79 38.12 38.18 38.20 37.34 35.17 31.16 29.21 28.52 28.46 27.44 27.19 27.54 27.98 28.12 27.61 27.30 28.22 28.30 28.23 28.28 28.78 32.68
27.73 27.95 28.07 28.08 28.10 28.08 27.93 27.80 28.02 28.14 28.34 28.38 28.44 28.29 28.08 28.07 28.70 29.38 29.46 28.68 26.80 26.13 26.09 26.24 26.58 27.30 28.32 29.80 29.20 28.03 26.97 26.84 25.99 26.44 27.28 27.80 28.35 30.45 32.03 30.69 29.19 29.18 30.89 34.31 36.07 37.00 37.43 37.64 37.79 37.86 37.22 35.09 31.06 29.29 28.75 28.37 27.82 27.70 27.85 28.20 28.56 28.45 28.39 28.85 28.93 28.92 28.78 28.67 31.83
27.95 28.24 28.49 28.47 28.25 28.14 28.15 28.32 28.61 28.67 28.62 28.47 28.42 28.58 29.05 29.77 29.55 29.03 28.26 26.95 26.15 25.99 26.36 26.90 27.13 27.52 28.34 29.91 29.55 28.36 27.29 27.31 27.09 26.81 27.07 28.34 28.82 30.75 32.19 31.23 29.41 28.39 28.86 31.34 34.28 35.88 36.63 36.98 37.27 37.51 37.09 35.27 31.29 29.46 28.85 28.30 28.22 28.04 27.98 28.08 28.60 28.80 28.69 28.50 28.84 29.43 29.77 29.67 30.25
MSLP
1021.25 1021.33 1021.37 1021.53 1021.61 1021.81 1021.97 1022.09 1022.17 1022.21 1022.25 1022.37 1022.57 1022.77 1022.93 1023.09 1023.33 1023.49 1023.61 1023.69 1023.77 1023.81 1023.85 1023.85 1023.89 1023.89 1023.89 1023.93 1023.93 1023.97 1024.01 1024.01 1024.01 1024.01 1023.97 1024.01 1024.01 1024.01 1023.97 1023.97 1023.97 1023.97 1023.97 1023.97 1024.01 1024.05 1024.09 1024.09 1024.09 1024.13 1024.09 1024.09 1024.13 1024.17 1024.17 1024.09 1024.09 1024.17 1024.21 1024.21 1024.21 1024.17 1024.17 1024.21 1024.17 1024.09 1024.09 1024.01 1023.93
1021.29 1021.33 1021.37 1021.45 1021.57 1021.77 1021.93 1022.09 1022.17 1022.21 1022.25 1022.33 1022.45 1022.65 1022.81 1023.01 1023.21 1023.41 1023.53 1023.65 1023.69 1023.77 1023.81 1023.81 1023.81 1023.81 1023.89 1023.89 1023.85 1023.93 1023.93 1023.97 1023.97 1023.97 1023.97 1023.97 1024.01 1024.01 1024.01 1023.93 1023.93 1023.93 1023.93 1023.97 1023.97 1023.97 1024.01 1024.09 1024.09 1024.09 1024.09 1024.09 1024.09 1024.13 1024.09 1024.05 1024.09 1024.09 1024.13 1024.17 1024.09 1024.09 1024.09 1024.09 1024.01 1023.93 1023.93 1023.89 1023.81
1021.21 1021.29 1021.37 1021.53 1021.65 1021.81 1021.93 1022.09 1022.17 1022.25 1022.33 1022.41 1022.49 1022.65 1022.81 1022.93 1023.17 1023.33 1023.49 1023.61 1023.65 1023.73 1023.81 1023.77 1023.77 1023.77 1023.81 1023.81 1023.85 1023.89 1023.93 1023.93 1023.93 1023.97 1023.97 1023.97 1023.97 1024.01 1023.97 1023.93 1023.93 1023.93 1023.89 1023.93 1023.93 1023.93 1023.97 1024.01 1024.01 1023.97 1024.01 1024.05 1024.09 1024.09 1024.09 1023.97 1023.97 1024.05 1024.09 1024.09 1024.01 1024.01 1023.97 1023.93 1023.89 1023.81 1023.81 1023.77 1023.73
1021.21 1021.29 1021.41 1021.53 1021.65 1021.73 1021.81 1021.93 1022.09 1022.25 1022.33 1022.41 1022.53 1022.65 1022.81 1022.97 1023.13 1023.29 1023.49 1023.57 1023.69 1023.73 1023.77 1023.73 1023.73 1023.69 1023.73 1023.81 1023.81 1023.85 1023.89 1023.85 1023.89 1023.93 1023.93 1023.93 1023.93 1023.93 1023.93 1023.93 1023.93 1023.89 1023.89 1023.89 1023.89 1023.93 1023.93 1023.93 1023.93 1023.93 1023.97 1023.97 1024.05 1024.05 1024.01 1023.93 1023.93 1023.97 1023.93 1023.93 1023.93 1023.89 1023.85 1023.81 1023.73 1023.69 1023.65 1023.65 1023.61
1021.21 1021.25 1021.33 1021.37 1021.49 1021.53 1021.65 1021.77 1021.93 1022.17 1022.33 1022.37 1022.53 1022.65 1022.85 1023.01 1023.17 1023.33 1023.49 1023.57 1023.65 1023.65 1023.65 1023.65 1023.65 1023.65 1023.69 1023.69 1023.77 1023.81 1023.81 1023.81 1023.81 1023.85 1023.93 1023.93 1023.93 1023.93 1023.93 1023.93 1023.89 1023.85 1023.85 1023.85 1023.85 1023.89 1023.93 1023.93 1023.93 1023.93 1023.93 1023.93 1023.93 1023.93 1023.85 1023.85 1023.93 1023.93 1023.89 1023.81 1023.81 1023.77 1023.73 1023.69 1023.65 1023.57 1023.53 1023.53 1023.49
1021.13 1021.21 1021.29 1021.33 1021.37 1021.53 1021.65 1021.73 1021.89 1022.05 1022.25 1022.33 1022.49 1022.69 1022.93 1023.05 1023.21 1023.33 1023.49 1023.53 1023.53 1023.57 1023.57 1023.57 1023.57 1023.57 1023.61 1023.65 1023.69 1023.73 1023.81 1023.81 1023.81 1023.85 1023.89 1023.89 1023.89 1023.89 1023.89 1023.85 1023.85 1023.81 1023.81 1023.81 1023.81 1023.85 1023.89 1023.89 1023.89 1023.85 1023.81 1023.81 1023.81 1023.81 1023.77 1023.81 1023.85 1023.89 1023.89 1023.81 1023.69 1023.65 1023.65 1023.61 1023.53 1023.49 1023.45 1023.41 1023.37
1021.01 1021.13 1021.21 1021.29 1021.37 1021.53 1021.65 1021.81 1021.93 1022.05 1022.21 1022.29 1022.49 1022.69 1022.89 1023.05 1023.21 1023.33 1023.41 1023.49 1023.53 1023.53 1023.53 1023.53 1023.53 1023.57 1023.61 1023.65 1023.65 1023.69 1023.69 1023.73 1023.81 1023.81 1023.85 1023.85 1023.85 1023.85 1023.81 1023.81 1023.77 1023.77 1023.77 1023.77 1023.81 1023.81 1023.85 1023.85 1023.85 1023.81 1023.77 1023.73 1023.69 1023.69 1023.73 1023.81 1023.81 1023.81 1023.81 1023.73 1023.61 1023.53 1023.53 1023.49 1023.37 1023.37 1023.37 1023.33 1023.33
1020.93 1021.01 1021.09 1021.21 1021.37 1021.49 1021.65 1021.77 1021.93 1022.05 1022.21 1022.29 1022.41 1022.61 1022.81 1022.93 1023.09 1023.21 1023.33 1023.41 1023.49 1023.53 1023.49 1023.45 1023.53 1023.53 1023.53 1023.57 1023.61 1023.65 1023.65 1023.65 1023.73 1023.77 1023.81 1023.81 1023.81 1023.81 1023.81 1023.77 1023.73 1023.73 1023.73 1023.73 1023.73 1023.77 1023.77 1023.81 1023.77 1023.77 1023.73 1023.65 1023.65 1023.65 1023.65 1023.69 1023.73 1023.77 1023.77 1023.65 1023.53 1023.45 1023.37 1023.33 1023.25 1023.21 1023.21 1023.21 1023.21
1020.97 1021.09 1021.17 1021.29 1021.37 1021.49 1021.65 1021.73 1021.85 1021.97 1022.13 1022.25 1022.37 1022.49 1022.65 1022.81 1022.97 1023.13 1023.25 1023.37 1023.33 1023.33 1023.37 1023.41 1023.45 1023.49 1023.49 1023.53 1023.53 1023.53 1023.53 1023.61 1023.65 1023.65 1023.69 1023.77 1023.77 1023.77 1023.73 1023.69 1023.65 1023.65 1023.65 1023.65 1023.65 1023.69 1023.69 1023.69 1023.65 1023.65 1023.61 1023.57 1023.57 1023.53 1023.53 1023.57 1023.65 1023.65 1023.61 1023.53 1023.45 1023.33 1023.21 1023.21 1023.17 1023.13 1023.13 1023.13 1023.09
1020.93 1021.09 1021.21 1021.37 1021.49 1021.53 1021.65 1021.77 1021.81 1021.93 1022.01 1022.17 1022.33 1022.45 1022.57 1022.69 1022.85 1023.01 1023.09 1023.13 1023.21 1023.25 1023.33 1023.37 1023.37 1023.41 1023.41 1023.41 1023.41 1023.41 1023.45 1023.53 1023.57 1023.61 1023.61 1023.65 1023.65 1023.65 1023.65 1023.65 1023.61 1023.57 1023.53 1023.53 1023.57 1023.61 1023.65 1023.65 1023.61 1023.57 1023.53 1023.53 1023.53 1023.49 1023.45 1023.49 1023.53 1023.53 1023.49 1023.37 1023.29 1023.21 1023.17 1023.09 1023.05 1023.05 1023.05 1022.97 1022.93
1020.85 1021.01 1021.17 1021.33 1021.49 1021.53 1021.65 1021.77 1021.89 1021.93 1022.01 1022.13 1022.29 1022.41 1022.53 1022.65 1022.81 1022.93 1022.97 1023.05 1023.17 1023.21 1023.25 1023.25 1023.29 1023.33 1023.33 1023.33 1023.33 1023.33 1023.37 1023.41 1023.49 1023.53 1023.53 1023.53 1023.53 1023.57 1023.61 1023.57 1023.53 1023.53 1023.49 1023.49 1023.49 1023.53 1023.53 1023.53 1023.53 1023.53 1023.45 1023.37 1023.37 1023.37 1023.37 1023.37 1023.37 1023.37 1023.37 1023.25 1023.21 1023.17 1023.09 1023.01 1022.93 1022.89 1022.89 1022.81 1022.81
1020.81 1020.93 1021.09 1021.25 1021.41 1021.53 1021.61 1021.73 1021.85 1021.93 1021.97 1022.09 1022.25 1022.37 1022.53 1022.61 1022.77 1022.85 1022.93 1023.05 1023.09 1023.13 1023.17 1023.21 1023.21 1023.21 1023.21 1023.21 1023.21 1023.21 1023.21 1023.33 1023.37 1023.45 1023.49 1023.53 1023.53 1023.53 1023.53 1023.49 1023.49 1023.45 1023.37 1023.37 1023.37 1023.37 1023.41 1023.41 1023.41 1023.41 1023.37 1023.29 1023.25 1023.25 1023.21 1023.21 1023.25 1023.25 1023.21 1023.09 1023.09 1023.09 1022.97 1022.85 1022.81 1022.73 1022.69 1022.65 1022.65
1020.69 1020.93 1021.13 1021.25 1021.37 1021.49 1021.57 1021.65 1021.81 1021.89 1021.93 1022.09 1022.21 1022.33 1022.45 1022.57 1022.65 1022.77 1022.85 1022.93 1023.01 1023.05 1023.09 1023.09 1023.09 1023.09 1023.09 1023.09 1023.09 1023.13 1023.17 1023.21 1023.29 1023.37 1023.41 1023.41 1023.41 1023.41 1023.37 1023.37 1023.37 1023.33 1023.29 1023.25 1023.29 1023.29 1023.25 1023.29 1023.29 1023.29 1023.29 1023.21 1023.13 1023.09 1023.09 1023.09 1023.09 1023.09 1023.09 1023.01 1022.97 1022.93 1022.85 1022.73 1022.65 1022.57 1022.53 1022.53 1022.45
1020.65 1020.85 1021.09 1021.21 1021.37 1021.41 1021.53 1021.61 1021.73 1021.85 1021.93 1022.05 1022.13 1022.25 1022.37 1022.49 1022.57 1022.65 1022.73 1022.81 1022.89 1022.93 1022.97 1023.05 1023.01 1022.97 1022.93 1022.97 1022.97 1023.01 1023.09 1023.13 1023.21 1023.29 1023.33 1023.33 1023.33 1023.33 1023.29 1023.25 1023.21 1023.21 1023.17 1023.17 1023.17 1023.13 1023.13 1023.17 1023.17 1023.17 1023.17 1023.09 1023.05 1022.97 1022.93 1022.97 1022.97 1022.93 1022.93 1022.89 1022.81 1022.77 1022.65 1022.53 1022.45 1022.37 1022.37 1022.33 1022.25
1020.69 1020.85 1021.01 1021.13 1021.21 1021.29 1021.37 1021.53 1021.65 1021.73 1021.81 1021.93 1022.05 1022.17 1022.25 1022.37 1022.49 1022.53 1022.61 1022.73 1022.81 1022.85 1022.93 1022.93 1022.93 1022.89 1022.85 1022.85 1022.85 1022.93 1022.97 1023.05 1023.13 1023.21 1023.21 1023.21 1023.21 1023.21 1023.21 1023.17 1023.09 1023.09 1023.09 1023.05 1023.01 1022.97 1023.01 1023.05 1023.01 1023.01 1023.01 1023.01 1022.93 1022.85 1022.81 1022.81 1022.81 1022.81 1022.73 1022.69 1022.65 1022.53 1022.45 1022.37 1022.25 1022.25 1022.21 1022.13 1022.09
1020.65 1020.81 1020.93 1021.05 1021.09 1021.21 1021.29 1021.37 1021.53 1021.65 1021.73 1021.85 1021.93 1022.09 1022.21 1022.33 1022.41 1022.45 1022.53 1022.61 1022.73 1022.81 1022.81 1022.85 1022.81 1022.81 1022.81 1022.73 1022.73 1022.81 1022.89 1022.97 1023.05 1023.09 1023.13 1023.17 1023.09 1023.09 1023.09 1023.05 1022.97 1022.97 1022.93 1022.93 1022.89 1022.85 1022.85 1022.85 1022.81 1022.81 1022.85 1022.81 1022.81 1022.73 1022.65 1022.61 1022.61 1022.57 1022.53 1022.45 1022.37 1022.33 1022.25 1022.09 1022.09 1022.01 1021.93 1021.89 1021.89
1020.57 1020.73 1020.81 1020.89 1020.93 1021.09 1021.21 1021.33 1021.41 1021.53 1021.61 1021.69 1021.85 1021.93 1022.09 1022.21 1022.33 1022.37 1022.41 1022.49 1022.61 1022.69 1022.73 1022.69 1022.69 1022.65 1022.65 1022.61 1022.65 1022.69 1022.81 1022.89 1022.93 1023.01 1023.05 1023.05 1023.01 1022.97 1022.93 1022.89 1022.85 1022.81 1022.81 1022.81 1022.81 1022.77 1022.69 1022.65 1022.65 1022.65 1022.65 1022.65 1022.61 1022.53 1022.53 1022.45 1022.41 1022.37 1022.25 1022.25 1022.13 1022.05 1021.97 1021.89 1021.81 1021.77 1021.73 1021.65 1021.61
1020.49 1020.61 1020.69 1020.77 1020.81 1020.93 1021.05 1021.21 1021.33 1021.41 1021.49 1021.57 1021.73 1021.85 1021.93 1022.09 1022.21 1022.29 1022.37 1022.41 1022.49 1022.57 1022.61 1022.57 1022.53 1022.53 1022.53 1022.53 1022.57 1022.61 1022.65 1022.77 1022.81 1022.85 1022.85 1022.85 1022.85 1022.85 1022.81 1022.77 1022.69 1022.65 1022.69 1022.69 1022.69 1022.65 1022.57 1022.49 1022.49 1022.53 1022.53 1022.45 1022.41 1022.37 1022.29 1022.25 1022.21 1022.09 1022.01 1021.93 1021.85 1021.81 1021.69 1021.65 1021.53 1021.53 1021.49 1021.41 1021.33
1020.37 1020.49 1020.57 1020.65 1020.65 1020.73 1020.85 1021.01 1021.13 1021.21 1021.37 1021.49 1021.61 1021.73 1021.89 1022.01 1022.09 1022.25 1022.33 1022.37 1022.41 1022.41 1022.45 1022.45 1022.45 1022.41 1022.41 1022.41 1022.49 1022.53 1022.53 1022.65 1022.65 1022.69 1022.69 1022.65 1022.65 1022.69 1022.65 1022.61 1022.53 1022.53 1022.53 1022.57 1022.53 1022.49 1022.41 1022.37 1022.33 1022.33 1022.33 1022.29 1022.25 1022.13 1022.09 1022.05 1021.93 1021.85 1021.81 1021.69 1021.61 1021.53 1021.45 1021.37 1021.29 1021.21 1021.21 1021.13 1021.05
1020.17 1020.33 1020.37 1020.41 1020.49 1020.61 1020.73 1020.85 1020.97 1021.09 1021.21 1021.37 1021.53 1021.65 1021.81 1021.93 1022.05 1022.13 1022.25 1022.29 1022.25 1022.25 1022.33 1022.37 1022.37 1022.33 1022.29 1022.29 1022.37 1022.41 1022.41 1022.49 1022.53 1022.57 1022.53 1022.53 1022.53 1022.53 1022.49 1022.45 1022.41 1022.41 1022.41 1022.41 1022.37 1022.33 1022.25 1022.21 1022.17 1022.13 1022.13 1022.09 1022.01 1021.93 1021.81 1021.77 1021.65 1021.61 1021.53 1021.45 1021.37 1021.25 1021.17 1021.09 1021.01 1020.93 1020.89 1020.85 1020.81
1019.97 1020.05 1020.09 1020.17 1020.33 1020.49 1020.61 1020.73 1020.81 1020.93 1021.09 1021.25 1021.41 1021.57 1021.73 1021.85 1021.97 1022.05 1022.05 1022.09 1022.13 1022.21 1022.25 1022.25 1022.25 1022.25 1022.21 1022.25 1022.29 1022.33 1022.33 1022.37 1022.41 1022.41 1022.41 1022.37 1022.37 1022.33 1022.29 1022.29 1022.29 1022.29 1022.29 1022.25 1022.21 1022.13 1022.09 1022.05 1021.97 1021.93 1021.89 1021.81 1021.77 1021.65 1021.57 1021.49 1021.37 1021.33 1021.25 1021.17 1021.09 1020.97 1020.89 1020.81 1020.77 1020.69 1020.65 1020.57 1020.53
1019.73 1019.81 1019.89 1020.05 1020.21 1020.33 1020.45 1020.65 1020.77 1020.89 1021.05 1021.21 1021.37 1021.53 1021.65 1021.77 1021.85 1021.93 1021.93 1021.93 1022.05 1022.09 1022.09 1022.09 1022.09 1022.09 1022.09 1022.13 1022.21 1022.25 1022.25 1022.21 1022.25 1022.29 1022.25 1022.25 1022.21 1022.13 1022.09 1022.17 1022.21 1022.21 1022.17 1022.09 1022.01 1021.93 1021.89 1021.81 1021.77 1021.69 1021.65 1021.57 1021.53 1021.41 1021.29 1021.21 1021.13 1021.09 1020.97 1020.89 1020.81 1020.69 1020.61 1020.53 1020.49 1020.41 1020.37 1020.29 1020.25
1019.53 1019.65 1019.81 1019.97 1020.09 1020.25 1020.37 1020.57 1020.73 1020.89 1021.01 1021.17 1021.29 1021.45 1021.57 1021.65 1021.73 1021.81 1021.85 1021.89 1021.93 1021.93 1021.93 1021.93 1021.93 1021.93 1021.97 1022.01 1022.09 1022.13 1022.17 1022.13 1022.13 1022.13 1022.13 1022.13 1022.09 1022.05 1022.01 1022.01 1022.09 1022.09 1022.01 1021.89 1021.81 1021.81 1021.77 1021.65 1021.53 1021.45 1021.37 1021.29 1021.21 1021.09 1020.97 1020.93 1020.89 1020.81 1020.73 1020.65 1020.53 1020.45 1020.33 1020.25 1020.17 1020.13 1020.09 1019.97 1019.93
1019.37 1019.57 1019.77 1019.93 1020.09 1020.21 1020.37 1020.53 1020.65 1020.81 1020.97 1021.13 1021.25 1021.37 1021.49 1021.57 1021.65 1021.65 1021.73 1021.77 1021.77 1021.77 1021.77 1021.77 1021.81 1021.81 1021.85 1021.93 1022.01 1022.09 1022.09 1022.13 1022.09 1022.01 1021.93 1021.93 1021.93 1021.89 1021.89 1021.89 1021.89 1021.85 1021.77 1021.65 1021.57 1021.57 1021.53 1021.33 1021.21 1021.09 1020.93 1020.89 1020.81 1020.73 1020.65 1020.61 1020.57 1020.53 1020.45 1020.37 1020.25 1020.17 1020.09 1019.97 1019.93 1019.85 1019.81 1019.69 1019.61
1019.29 1019.49 1019.69 1019.85 1020.05 1020.21 1020.37 1020.53 1020.65 1020.81 1020.93 1021.05 1021.17 1021.25 1021.37 1021.45 1021.53 1021.53 1021.57 1021.61 1021.61 1021.61 1021.61 1021.65 1021.65 1021.73 1021.81 1021.85 1021.93 1021.93 1022.01 1022.01 1022.01 1021.93 1021.89 1021.81 1021.73 1021.69 1021.69 1021.73 1021.65 1021.61 1021.53 1021.41 1021.21 1021.05 1020.89 1020.73 1020.65 1020.53 1020.45 1020.41 1020.37 1020.37 1020.33 1020.29 1020.25 1020.21 1020.13 1020.09 1020.01 1019.93 1019.85 1019.77 1019.65 1019.61 1019.53 1019.45 1019.37
1019.21 1019.45 1019.65 1019.85 1019.97 1020.13 1020.29 1020.45 1020.57 1020.69 1020.81 1020.97 1021.09 1021.21 1021.25 1021.33 1021.37 1021.41 1021.45 1021.49 1021.41 1021.41 1021.45 1021.53 1021.57 1021.61 1021.65 1021.69 1021.77 1021.81 1021.81 1021.81 1021.81 1021.81 1021.81 1021.69 1021.61 1021.53 1021.53 1021.49 1021.37 1021.37 1021.25 1021.13 1020.89 1020.65 1020.49 1020.33 1020.13 1020.05 1020.01 1020.01 1020.01 1020.01 1019.97 1019.93 1019.93 1019.89 1019.81 1019.81 1019.73 1019.69 1019.65 1019.53 1019.45 1019.33 1019.25 1019.21 1019.13
1019.21 1019.41 1019.61 1019.81 1019.93 1020.09 1020.25 1020.37 1020.49 1020.65 1020.77 1020.93 1021.01 1021.09 1021.13 1021.21 1021.25 1021.29 1021.33 1021.33 1021.33 1021.33 1021.37 1021.41 1021.45 1021.45 1021.49 1021.57 1021.65 1021.65 1021.65 1021.65 1021.65 1021.65 1021.65 1021.57 1021.53 1021.41 1021.33 1021.21 1021.09 1021.05 1020.97 1020.81 1020.61 1020.37 1020.21 1020.01 1019.85 1019.73 1019.65 1019.65 1019.65 1019.69 1019.69 1019.61 1019.57 1019.57 1019.53 1019.53 1019.49 1019.49 1019.41 1019.37 1019.25 1019.17 1019.09 1019.01 1018.93
1019.17 1019.37 1019.57 1019.73 1019.93 1020.05 1020.17 1020.29 1020.45 1020.57 1020.65 1020.77 1020.85 1020.93 1021.01 1021.09 1021.13 1021.17 1021.21 1021.21 1021.21 1021.21 1021.25 1021.29 1021.29 1021.33 1021.37 1021.49 1021.53 1021.53 1021.45 1021.45 1021.45 1021.41 1021.41 1021.41 1021.37 1021.25 1021.13 1021.01 1020.85 1020.73 1020.61 1020.45 1020.25 1020.09 1019.93 1019.77 1019.61 1019.53 1019.41 1019.37 1019.37 1019.37 1019.37 1019.37 1019.33 1019.33 1019.33 1019.29 1019.25 1019.21 1019.21 1019.13 1019.05 1018.97 1018.93 1018.85 1018.77
1019.05 1019.25 1019.49 1019.65 1019.85 1019.97 1020.13 1020.25 1020.37 1020.49 1020.53 1020.57 1020.69 1020.81 1020.85 1020.93 1020.97 1021.01 1021.05 1021.09 1021.09 1021.13 1021.13 1021.13 1021.13 1021.21 1021.33 1021.33 1021.33 1021.29 1021.25 1021.25 1021.21 1021.21 1021.21 1021.21 1021.13 1021.05 1020.93 1020.77 1020.65 1020.53 1020.33 1020.13 1020.01 1019.85 1019.69 1019.53 1019.41 1019.29 1019.17 1019.09 1019.09 1019.05 1019.05 1019.05 1019.09 1019.05 1019.01 1018.97 1018.97 1018.97 1018.93 1018.85 1018.81 1018.81 1018.73 1018.65 1018.61
1018.93 1019.17 1019.37 1019.57 1019.77 1019.93 1020.09 1020.17 1020.25 1020.33 1020.37 1020.53 1020.61 1020.69 1020.77 1020.81 1020.85 1020.89 1020.93 1020.97 1020.97 1020.97 1020.93 1020.97 1021.05 1021.13 1021.17 1021.13 1021.09 1021.09 1021.09 1021.01 1020.97 1021.01 1021.01 1021.01 1020.93 1020.81 1020.65 1020.49 1020.37 1020.25 1020.09 1019.93 1019.81 1019.65 1019.49 1019.33 1019.21 1019.05 1018.93 1018.81 1018.77 1018.77 1018.77 1018.81 1018.81 1018.81 1018.81 1018.73 1018.73 1018.73 1018.69 1018.65 1018.61 1018.57 1018.53 1018.45 1018.41
1018.89 1019.09 1019.29 1019.49 1019.65 1019.81 1019.93 1019.97 1020.09 1020.21 1020.37 1020.45 1020.53 1020.57 1020.65 1020.65 1020.73 1020.77 1020.77 1020.81 1020.81 1020.81 1020.81 1020.89 1020.97 1021.01 1020.93 1020.93 1020.93 1020.93 1020.89 1020.81 1020.81 1020.81 1020.81 1020.81 1020.65 1020.53 1020.37 1020.25 1020.13 1020.01 1019.85 1019.73 1019.57 1019.41 1019.25 1019.09 1018.93 1018.81 1018.65 1018.57 1018.49 1018.53 1018.53 1018.53 1018.57 1018.57 1018.57 1018.53 1018.53 1018.49 1018.49 1018.49 1018.41 1018.37 1018.33 1018.29 1018.25
1018.81 1019.01 1019.21 1019.41 1019.61 1019.69 1019.81 1019.89 1020.05 1020.13 1020.25 1020.33 1020.37 1020.41 1020.49 1020.53 1020.53 1020.53 1020.57 1020.61 1020.65 1020.65 1020.69 1020.77 1020.81 1020.81 1020.77 1020.77 1020.77 1020.73 1020.65 1020.65 1020.57 1020.53 1020.49 1020.49 1020.37 1020.29 1020.13 1020.01 1019.93 1019.81 1019.69 1019.49 1019.37 1019.17 1019.01 1018.81 1018.69 1018.53 1018.41 1018.37 1018.25 1018.29 1018.33 1018.33 1018.33 1018.33 1018.33 1018.33 1018.29 1018.25 1018.25 1018.25 1018.17 1018.13 1018.09 1018.01 1017.93
1018.77 1018.93 1019.13 1019.37 1019.53 1019.57 1019.65 1019.81 1019.93 1020.05 1020.13 1020.21 1020.25 1020.29 1020.33 1020.37 1020.37 1020.37 1020.41 1020.45 1020.49 1020.53 1020.57 1020.61 1020.65 1020.65 1020.61 1020.57 1020.53 1020.49 1020.41 1020.37 1020.33 1020.25 1020.13 1020.09 1020.09 1020.01 1019.93 1019.81 1019.69 1019.57 1019.41 1019.21 1019.09 1018.89 1018.73 1018.57 1018.45 1018.33 1018.21 1018.09 1018.09 1018.09 1018.13 1018.13 1018.13 1018.13 1018.09 1018.09 1018.09 1018.05 1018.01 1017.97 1017.93 1017.89 1017.81 1017.73 1017.65
1018.73 1018.93 1019.09 1019.25 1019.37 1019.49 1019.61 1019.77 1019.85 1019.93 1020.05 1020.09 1020.09 1020.13 1020.21 1020.25 1020.25 1020.25 1020.25 1020.25 1020.29 1020.37 1020.37 1020.37 1020.37 1020.37 1020.33 1020.29 1020.29 1020.25 1020.13 1020.05 1019.97 1019.93 1019.93 1019.89 1019.85 1019.81 1019.77 1019.65 1019.45 1019.21 1019.09 1018.93 1018.81 1018.65 1018.49 1018.37 1018.25 1018.13 1018.01 1017.89 1017.89 1017.93 1017.93 1017.97 1017.93 1017.93 1017.93 1017.85 1017.81 1017.81 1017.73 1017.73 1017.65 1017.61 1017.53 1017.45 1017.37
1018.65 1018.85 1019.09 1019.21 1019.33 1019.41 1019.53 1019.65 1019.81 1019.85 1019.93 1019.97 1019.97 1019.97 1020.01 1020.09 1020.09 1020.09 1020.01 1019.97 1020.09 1020.17 1020.21 1020.21 1020.13 1020.13 1020.09 1020.09 1020.05 1020.05 1019.97 1019.85 1019.77 1019.69 1019.65 1019.65 1019.65 1019.65 1019.53 1019.37 1019.13 1018.97 1018.81 1018.69 1018.53 1018.41 1018.29 1018.17 1018.05 1017.93 1017.81 1017.69 1017.77 1017.81 1017.81 1017.81 1017.81 1017.77 1017.69 1017.65 1017.57 1017.53 1017.45 1017.41 1017.37 1017.33 1017.25 1017.21 1017.13
1018.53 1018.77 1018.93 1019.09 1019.21 1019.37 1019.45 1019.53 1019.65 1019.77 1019.81 1019.85 1019.85 1019.85 1019.85 1019.89 1019.85 1019.85 1019.81 1019.81 1019.93 1020.01 1020.05 1020.01 1019.97 1019.97 1019.93 1019.89 1019.81 1019.77 1019.69 1019.65 1019.53 1019.49 1019.41 1019.41 1019.45 1019.41 1019.29 1019.09 1018.89 1018.73 1018.57 1018.45 1018.37 1018.25 1018.09 1017.93 1017.81 1017.65 1017.57 1017.53 1017.57 1017.61 1017.65 1017.61 1017.57 1017.53 1017.49 1017.41 1017.37 1017.29 1017.21 1017.17 1017.13 1017.09 1017.01 1016.93 1016.89
1018.41 1018.61 1018.81 1018.97 1019.13 1019.21 1019.33 1019.41 1019.53 1019.65 1019.65 1019.65 1019.65 1019.65 1019.65 1019.65 1019.65 1019.65 1019.65 1019.69 1019.81 1019.85 1019.81 1019.81 1019.81 1019.77 1019.69 1019.61 1019.53 1019.41 1019.33 1019.33 1019.33 1019.25 1019.21 1019.13 1019.17 1019.13 1019.01 1018.81 1018.65 1018.49 1018.37 1018.25 1018.13 1018.01 1017.85 1017.73 1017.57 1017.45 1017.37 1017.37 1017.37 1017.37 1017.37 1017.37 1017.33 1017.29 1017.21 1017.21 1017.09 1017.01 1016.93 1016.89 1016.85 1016.81 1016.73 1016.65 1016.61
1018.33 1018.49 1018.65 1018.85 1018.97 1019.09 1019.17 1019.29 1019.41 1019.49 1019.49 1019.45 1019.45 1019.45 1019.49 1019.49 1019.49 1019.45 1019.41 1019.45 1019.57 1019.65 1019.65 1019.57 1019.53 1019.45 1019.33 1019.21 1019.21 1019.09 1019.05 1019.05 1019.09 1019.05 1018.97 1018.93 1018.85 1018.81 1018.73 1018.61 1018.41 1018.25 1018.13 1018.01 1017.89 1017.73 1017.61 1017.45 1017.33 1017.21 1017.17 1017.17 1017.17 1017.13 1017.13 1017.13 1017.09 1017.05 1016.97 1016.93 1016.81 1016.73 1016.65 1016.61 1016.53 1016.49 1016.45 1016.37 1016.25
1018.25 1018.41 1018.57 1018.69 1018.81 1018.93 1019.05 1019.21 1019.25 1019.29 1019.25 1019.25 1019.25 1019.29 1019.29 1019.29 1019.21 1019.17 1019.13 1019.17 1019.29 1019.37 1019.37 1019.33 1019.21 1019.05 1018.93 1018.93 1018.93 1018.93 1018.85 1018.81 1018.81 1018.81 1018.77 1018.65 1018.53 1018.49 1018.45 1018.37 1018.17 1018.01 1017.85 1017.73 1017.57 1017.45 1017.29 1017.17 1017.05 1016.93 1016.93 1016.93 1016.93 1016.89 1016.89 1016.89 1016.81 1016.77 1016.69 1016.61 1016.53 1016.45 1016.37 1016.29 1016.25 1016.21 1016.13 1016.09 1015.93
1018.17 1018.33 1018.49 1018.57 1018.69 1018.81 1018.93 1019.05 1019.09 1019.09 1019.09 1019.09 1019.09 1019.09 1019.09 1019.01 1018.93 1018.93 1018.93 1018.93 1019.05 1019.09 1019.05 1019.01 1018.89 1018.77 1018.69 1018.69 1018.77 1018.73 1018.65 1018.57 1018.57 1018.53 1018.49 1018.37 1018.25 1018.17 1018.09 1018.05 1017.89 1017.69 1017.53 1017.41 1017.33 1017.21 1017.09 1016.97 1016.85 1016.73 1016.65 1016.65 1016.65 1016.65 1016.65 1016.65 1016.53 1016.49 1016.45 1016.37 1016.29 1016.21 1016.09 1015.97 1015.93 1015.89 1015.81 1015.77 1015.65
1018.09 1018.29 1018.37 1018.49 1018.57 1018.65 1018.81 1018.85 1018.85 1018.81 1018.85 1018.93 1018.93 1018.85 1018.81 1018.77 1018.81 1018.81 1018.81 1018.81 1018.81 1018.81 1018.81 1018.77 1018.65 1018.61 1018.57 1018.53 1018.57 1018.57 1018.49 1018.37 1018.29 1018.25 1018.21 1018.09 1018.05 1017.93 1017.81 1017.77 1017.65 1017.49 1017.33 1017.21 1017.09 1017.01 1016.89 1016.77 1016.65 1016.53 1016.41 1016.41 1016.37 1016.37 1016.37 1016.37 1016.29 1016.25 1016.17 1016.09 1015.97 1015.93 1015.81 1015.69 1015.61 1015.53 1015.53 1015.41 1015.37
Wind_Speed
3 3 3 4 4 3 3 2 2 3 3 3 3 3 3 3 3 2 2 2 2 2 1 1 1 1 1 1 1 1 1 1 1 1 1 1 1 1 1 1 1 1 0 1 1 1 1 1 1 1 1 1 1 1 1 1 1 1 1 2 2 2 2 2 3 3 3 3 3
3 3 3 4 4 4 3 3 3 3 3 2 3 3 3 3 3 2 2 2 2 1 1 1 1 1 1 1 1 1 1 1 1 1 1 1 1 1 1 1 1 1 1 1 1 1 1 1 1 1 1 1 1 1 1 1 1 1 1 2 2 2 2 3 3 4 4 3 3
3 3 4 4 4 4 4 3 3 3 3 3 3 3 3 3 3 2 2 2 1 1 1 1 1 1 1 1 1 1 1 1 1 1 1 2 2 1 1 1 1 1 1 1 1 1 1 1 1 1 1 1 1 2 2 2 1 2 2 3 2 2 2 3 3 3 3 3 3
4 4 4 5 5 5 5 4 4 4 3 3 3 3 3 2 2 2 2 1 1 1 2 2 2 1 1 1 1 1 1 1 1 1 1 2 2 2 1 1 1 1 1 1 1 1 1 1 1 1 2 2 2 3 3 2 2 2 2 2 2 2 2 3 3 3 2 3 3
4 4 4 5 5 5 5 5 5 5 4 3 3 3 3 2 2 2 2 1 1 2 2 2 2 2 1 1 1 1 1 1 1 1 1 2 2 2 1 1 2 2 2 1 1 1 1 1 1 2 2 2 2 2 2 2 2 2 2 2 2 2 2 3 2 2 2 2 2
5 4 3 3 4 4 4 4 5 5 4 4 4 4 3 2 2 2 2 2 2 2 2 2 2 2 2 1 1 1 1 1 1 1 1 2 2 2 2 2 2 2 2 1 1 2 2 2 1 2 2 2 3 3 2 2 2 2 2 2 2 2 2 2 2 2 2 3 3
5 5 4 4 5 5 5 4 5 5 4 4 5 5 5 3 3 3 2 2 2 2 2 2 2 2 1 1 1 1 1 1 1 1 1 2 2 2 2 2 2 2 2 2 2 2 2 2 2 2 2 3 2 2 2 2 2 2 2 3 3 2 2 3 2 2 2 4 4
4 5 5 5 5 6 6 6 5 5 4 4 5 6 6 5 4 3 3 2 2 2 2 2 2 2 2 1 1 1 1 1 1 1 1 1 2 2 2 2 2 2 2 2 2 2 2 2 2 2 2 2 2 2 2 2 2 2 3 3 3 3 2 3 2 2 3 4 5
4 4 4 4 5 5 6 6 6 5 5 5 5 5 5 5 5 4 3 2 2 2 2 2 2 2 2 2 1 1 1 1 1 1 1 1 2 2 2 2 2 2 2 2 2 2 2 2 2 2 2 2 2 2 2 2 2 2 3 3 3 3 3 3 3 3 3 4 5
6 5 5 5 5 5 5 5 5 5 6 6 5 5 4 5 4 4 3 2 2 2 2 2 2 2 2 2 2 2 1 1 1 2 2 2 2 3 3 2 3 3 3 2 2 2 2 2 2 2 2 2 2 2 2 2 2 3 4 3 3 4 4 4 3 3 4 4 5
7 6 6 5 6 6 5 5 4 4 5 5 5 4 3 3 3 3 3 2 2 2 2 2 2 2 2 2 2 2 2 2 1 2 2 2 3 3 3 3 3 3 3 2 2 2 2 2 2 3 3 2 2 3 3 3 3 3 4 3 3 4 4 5 4 4 4 4 5
8 7 6 6 6 6 6 5 4 4 5 5 4 4 3 3 3 3 3 2 2 2 2 3 3 3 2 2 2 2 2 2 2 2 2 3 3 3 3 3 3 3 3 3 2 2 2 2 2 3 3 3 3 3 3 3 3 4 4 4 4 4 5 6 6 5 4 4 5
8 7 6 6 6 5 5 5 4 4 4 5 4 3 3 3 3 3 3 3 2 2 2 2 3 3 3 2 2 2 2 2 2 2 2 3 3 3 3 3 3 3 3 3 2 2 2 2 3 3 4 4 4 4 3 3 4 4 5 5 5 5 6 7 7 6 4 4 4
8 7 7 6 5 5 5 5 4 4 4 4 4 3 3 3 3 3 3 3 3 2 2 2 2 3 3 3 2 2 2 2 2 2 3 3 3 3 3 3 3 3 3 3 2 2 2 3 3 4 4 5 5 5 4 4 4 5 5 6 6 7 7 8 7 6 5 5 5
8 7 7 6 5 5 5 5 4 4 4 4 4 3 3 3 3 3 3 3 3 2 2 2 2 2 3 3 2 2 2 2 2 2 3 3 3 3 3 3 4 3 3 3 2 3 3 4 4 4 4 5 6 6 5 5 5 5 6 6 7 7 8 8 7 7 6 6 6
7 7 6 5 5 5 5 5 4 4 4 4 3 3 3 3 3 3 3 3 3 2 2 2 2 2 2 2 2 2 2 2 2 2 2 3 3 3 4 4 4 4 4 3 3 3 4 4 4 4 5 5 6 6 6 6 6 6 7 7 7 8 8 8 8 7 7 7 7
7 7 6 5 6 6 5 5 4 3 3 3 3 3 3 3 2 3 3 3 2 2 2 2 2 2 1 1 2 2 2 2 2 2 3 4 4 4 4 5 5 4 4 4 4 5 5 5 4 4 5 5 6 6 7 7 7 7 7 7 8 8 8 8 8 8 7 7 7
7 7 6 6 6 6 6 5 4 4 4 4 3 3 3 3 3 3 3 3 3 2 2 2 2 2 1 1 1 2 2 2 2 3 4 4 4 4 5 5 5 5 4 4 5 6 6 6 5 5 5 5 6 6 7 7 7 7 8 8 8 8 8 8 8 8 7 8 8
8 7 6 6 6 6 6 6 5 4 4 3 3 3 3 3 3 3 3 3 3 3 3 2 2 1 1 2 1 2 2 2 3 4 4 4 4 5 5 6 6 5 4 4 5 6 6 7 6 6 5 5 6 6 7 7 7 7 8 8 8 8 8 8 8 8 8 8 8
8 8 7 6 6 6 6 5 5 4 3 3 3 3 3 3 3 3 3 3 3 3 3 2 2 2 2 2 2 2 2 2 3 4 5 4 4 5 6 6 6 5 5 5 5 6 6 7 6 6 6 6 7 7 7 7 7 8 8 7 8 8 8 9 8 8 8 8 8
8 8 7 6 6 6 5 4 4 4 4 3 3 3 3 3 3 3 3 3 3 3 3 3 2 3 3 3 3 3 3 2 3 4 4 5 5 6 6 6 5 5 5 5 6 6 6 7 7 7 7 7 7 8 8 7 7 8 8 7 7 8 8 9 8 8 8 8 8
7 6 6 5 5 5 4 4 4 4 4 3 3 3 3 3 3 3 3 3 3 3 3 3 3 3 3 4 4 4 3 3 3 4 4 5 6 6 6 5 5 5 5 6 6 6 6 7 7 7 7 7 8 8 8 8 8 8 8 8 8 8 8 8 8 8 8 8 9
6 5 4 4 4 5 5 4 4 4 3 3 3 3 3 3 3 3 3 3 3 3 3 3 3 3 4 4 4 3 3 4 4 5 5 5 5 6 5 4 4 5 6 6 6 6 6 6 7 7 7 7 8 8 9 8 8 8 8 8 9 9 8 8 8 8 8 8 9
6 5 4 4 4 5 5 4 4 4 3 3 3 3 3 3 3 3 2 2 3 3 3 3 3 3 3 3 3 3 4 5 6 6 6 6 6 6 5 5 5 6 6 6 6 6 7 6 6 7 7 7 8 8 8 8 8 8 8 8 8 8 8 8 8 8 8 8 8
6 6 5 5 5 5 4 4 4 4 3 3 3 3 3 3 3 2 2 2 2 3 3 3 3 2 2 2 3 3 4 5 6 6 7 7 6 6 5 5 5 5 6 6 9 11 12 11 8 7 6 6 6 7 7 7 7 8 8 8 8 8 8 8 8 8 8 8 8
7 6 6 6 5 5 5 5 4 4 3 3 3 3 3 3 3 2 2 2 3 3 2 2 2 2 2 2 3 3 4 5 6 6 6 7 7 6 6 5 5 5 5 7 11 13 15 15 14 11 8 5 5 5 6 6 6 7 7 8 7 7 7 8 8 8 7 8 8
7 6 6 6 5 5 5 4 4 3 3 3 3 3 3 3 2 2 2 2 3 2 2 2 3 3 3 2 3 4 5 5 5 6 6 7 7 7 6 6 5 5 6 9 13 14 15 16 16 15 12 7 6 5 6 6 6 7 7 7 7 7 7 8 8 8 8 7 7
7 7 6 6 5 5 4 4 4 4 4 4 4 3 3 3 2 2 2 2 2 2 2 3 2 2 2 2 4 5 6 6 5 6 6 6 7 7 7 7 6 6 8 12 14 15 16 16 17 17 15 12 8 6 5 6 6 6 6 6 6 7 7 7 7 7 7 7 7
8 7 7 6 6 5 4 4 5 5 5 4 3 3 3 2 2 2 2 2 3 3 3 3 2 1 2 3 4 5 5 6 6 5 5 6 6 7 8 8 7 9 11 14 15 16 16 17 17 17 17 15 9 6 4 5 5 5 5 5 5 6 6 6 6 6 7 7 7
8 8 7 7 6 5 5 5 5 5 4 3 3 3 3 2 2 2 3 3 4 4 4 2 2 2 3 4 4 5 5 6 5 5 5 6 7 7 8 8 8 9 11 14 15 16 16 17 17 17 17 17 13 8 5 4 4 4 5 5 6 6 6 7 7 7 7 7 7
8 8 7 7 6 6 5 5 4 3 3 3 3 3 3 2 3 3 3 3 4 4 3 2 3 4 5 5 4 5 6 6 5 5 6 7 8 9 9 9 8 9 11 14 15 16 17 17 17 17 17 17 14 9 5 4 5 5 5 5 6 6 7 6 6 7 7 8 8
8 7 7 7 6 6 5 4 3 3 3 3 3 3 3 3 3 3 3 3 3 3 3 3 4 5 5 5 5 5 6 6 7 7 7 8 8 8 8 9 8 9 11 14 16 16 17 17 17 17 17 18 14 10 6 5 5 4 5 6 6 7 7 6 6 7 8 9 8
7 7 7 7 7 5 4 3 3 3 3 3 3 3 3 3 3 3 3 3 3 3 4 4 5 5 6 5 5 5 6 7 8 8 9 9 8 8 8 8 8 9 12 15 16 17 17 17 17 17 18 18 14 9 6 4 4 4 5 5 6 7 7 7 7 8 8 9 9
7 7 7 7 6 5 4 3 3 3 3 3 3 3 3 3 4 4 4 3 3 4 4 4 5 5 5 5 5 6 6 7 8 8 8 8 8 8 8 8 7 9 12 15 16 17 17 17 17 18 18 18 12 8 5 4 4 4 5 6 7 7 7 8 8 9 9 9 9
7 7 7 6 6 5 4 3 3 3 3 3 4 4 4 4 5 5 5 4 3 3 3 4 4 4 4 5 5 6 7 8 9 9 8 8 7 7 8 8 8 10 14 16 17 17 17 17 17 18 17 15 9 6 5 5 5 6 6 7 7 8 8 8 8 8 9 9 9
8 7 7 7 6 5 4 3 3 3 3 4 5 5 5 4 5 5 4 3 3 3 3 3 3 4 4 5 6 7 8 9 9 9 9 8 7 7 8 9 9 11 14 16 17 17 17 17 17 18 16 12 7 5 4 5 5 6 7 8 8 8 8 8 8 8 8 8 8
7 7 7 7 6 5 4 4 3 3 4 5 6 6 5 5 4 4 3 3 3 3 4 3 4 4 5 6 7 8 8 8 9 9 9 9 8 8 9 9 9 11 13 15 16 17 17 17 17 17 15 10 6 5 5 5 5 6 7 7 8 8 8 8 8 8 8 8 9
7 7 7 6 6 5 4 4 4 5 6 7 6 5 4 4 4 3 3 3 4 4 4 4 5 6 6 7 7 8 8 8 9 9 9 9 9 9 9 9 9 10 12 14 16 17 17 17 18 17 14 9 6 5 5 5 5 6 6 7 7 7 7 7 6 7 7 9 10
7 7 7 6 6 5 5 5 5 6 6 6 5 5 4 4 4 3 3 3 4 4 5 5 6 7 7 8 7 8 8 9 9 9 9 10 10 10 10 10 10 10 11 14 16 17 17 17 18 17 16 11 7 5 5 5 5 6 6 7 7 7 7 7 6 6 6 8 12
6 6 6 6 6 5 5 5 6 6 6 5 5 5 5 4 4 4 3 3 4 4 5 5 7 8 8 8 8 8 8 9 8 9 9 10 11 11 12 11 11 11 12 14 16 17 17 18 18 18 16 11 7 5 5 5 5 6 7 6 6 6 6 6 6 6 6 7 10
5 6 6 6 6 5 6 6 7 6 5 5 5 5 5 4 3 3 3 3 4 5 5 6 7 8 8 8 8 8 8 10 9 9 9 10 10 11 12 11 11 10 11 12 15 16 17 18 18 18 16 11 7 5 5 5 5 6 7 7 7 6 6 6 6 6 6 6 7
Wind_Direction
143 146 146 145 139 135 132 129 130 131 131 129 127 126 124 118 120 128 137 141 158 177 191 197 204 218 235 237 242 260 270 271 270 270 270 268 266 264 264 260 244 246 254 257 226 192 170 160 158 182 212 212 223 240 248 233 198 189 204 223 225 219 214 225 240 245 246 244 238
144 140 135 131 127 123 120 119 114 106 103 105 117 122 123 120 125 132 144 157 168 177 186 202 209 221 235 240 231 232 245 261 268 276 279 275 265 260 258 261 245 238 239 244 232 209 182 160 158 199 233 227 224 245 252 236 188 191 224 240 231 218 214 226 237 240 240 242 239
139 133 128 129 131 130 127 125 119 111 104 100 102 107 112 115 120 129 140 153 155 169 188 211 214 220 225 236 226 213 210 225 246 268 278 276 269 263 258 258 257 250 239 229 223 216 199 175 184 215 234 236 236 248 252 246 202 202 223 237 228 218 217 232 237 237 236 240 235
137 138 140 142 143 141 138 135 129 124 119 114 103 99 100 105 110 116 124 130 152 189 204 207 208 212 216 221 219 212 207 212 223 246 265 275 273 268 259 257 265 261 249 225 222 217 206 189 200 217 229 232 237 243 245 237 206 203 217 227 218 216 225 239 240 238 237 240 234
149 151 152 150 146 143 138 133 131 130 128 121 108 100 96 99 104 110 120 141 187 204 206 202 203 202 201 200 207 211 213 223 228 236 257 273 272 266 261 257 260 258 251 234 225 218 211 197 210 223 228 228 231 234 231 216 198 205 223 234 227 226 232 246 246 241 237 240 238
157 156 149 140 134 130 127 125 127 130 130 123 114 112 112 117 122 132 149 178 198 208 208 204 202 195 186 181 190 205 218 223 223 231 250 268 270 273 273 269 260 256 250 239 227 216 207 200 221 232 233 229 233 233 226 195 192 211 237 256 244 238 236 245 245 243 241 246 252
154 148 141 135 131 127 124 123 124 125 125 121 120 125 132 141 145 155 170 187 201 209 209 202 192 183 175 174 192 212 229 238 231 227 238 261 270 275 276 273 267 260 250 236 225 215 203 196 217 236 243 240 240 232 214 179 185 212 244 261 253 246 239 242 243 244 248 251 255
141 139 138 137 134 132 131 131 130 129 126 124 128 135 142 148 153 161 173 188 202 205 200 188 179 174 174 177 190 210 232 252 260 249 244 253 272 276 275 272 272 264 248 225 216 209 205 197 212 229 241 244 246 236 212 181 191 220 248 261 261 254 244 242 244 246 248 251 255
129 130 130 132 134 134 135 137 136 134 131 129 134 140 146 151 156 161 171 187 196 194 188 181 176 172 171 179 194 205 215 229 257 260 259 258 272 277 278 276 277 270 255 223 208 204 204 205 217 227 233 235 244 242 227 196 213 236 250 258 262 261 255 248 248 247 247 248 253
139 136 134 135 138 137 135 134 134 132 130 131 135 141 147 153 157 165 174 180 178 179 182 185 176 173 176 189 199 206 210 212 233 251 261 263 267 269 271 272 276 277 270 242 210 199 200 207 225 234 236 232 241 246 244 225 234 246 254 258 264 268 268 262 254 249 248 247 249
146 146 145 145 146 141 135 129 128 126 126 129 134 140 149 155 163 170 173 164 162 177 194 192 178 178 185 199 205 207 207 205 215 238 255 262 261 260 260 260 264 268 269 260 226 203 200 214 234 246 251 246 243 247 249 242 243 250 257 262 266 270 272 270 262 255 249 248 249
148 148 148 148 147 142 136 131 131 128 127 130 137 146 157 168 172 170 164 153 165 188 201 193 182 183 192 203 205 206 203 200 209 228 247 258 259 257 256 255 256 260 262 259 234 212 209 225 241 256 265 265 259 255 253 251 252 258 263 266 266 268 270 271 267 262 254 249 251
147 147 148 148 146 141 136 133 133 132 132 136 146 157 167 177 178 170 162 159 176 194 203 195 188 189 194 202 202 199 198 199 207 225 241 252 255 256 258 258 257 258 260 256 234 219 219 232 243 256 266 273 270 266 260 256 257 262 266 269 269 269 268 270 269 267 263 258 257
146 148 150 151 149 143 137 135 137 137 139 145 158 166 170 176 178 171 166 166 182 193 200 196 195 196 198 198 198 197 197 198 207 224 240 250 251 254 259 262 261 261 261 257 239 227 230 241 245 252 259 268 270 269 264 257 255 257 260 264 266 267 267 268 268 268 267 265 264
148 150 152 151 149 143 139 139 142 143 146 154 165 168 168 171 175 171 167 171 187 194 196 197 204 203 199 192 192 192 194 194 205 224 245 257 258 258 261 266 268 267 266 265 255 243 238 242 245 248 252 260 264 266 265 259 255 253 254 256 259 261 264 266 267 266 265 263 266
151 153 153 150 147 144 141 143 146 149 151 156 163 164 163 166 169 168 169 178 189 193 197 205 209 207 198 189 183 182 185 195 207 227 247 262 266 267 268 271 272 271 271 272 270 262 254 245 243 243 246 251 258 261 263 261 258 255 254 253 254 256 259 262 264 263 262 260 262
154 156 157 153 149 147 146 148 151 152 153 157 160 162 163 163 164 170 176 182 184 193 205 217 211 207 200 195 178 174 182 205 220 234 246 257 264 268 271 271 270 270 269 270 272 271 267 260 250 243 241 245 251 255 258 258 258 257 256 255 254 255 256 259 260 261 260 260 260
159 161 161 157 152 151 151 154 156 157 158 158 161 163 163 162 165 173 182 185 183 191 209 228 218 208 206 219 197 186 192 215 234 243 248 252 257 262 266 268 267 266 264 262 263 265 266 266 260 253 246 244 248 251 254 255 257 257 257 257 257 256 256 257 257 257 257 258 259
163 164 164 162 158 156 156 157 159 160 161 159 158 159 162 166 168 174 184 191 188 190 203 228 232 227 222 231 229 222 218 221 238 247 252 252 254 257 261 264 265 264 261 257 257 258 260 262 261 258 255 252 253 254 255 254 256 257 257 257 258 258 257 257 256 254 254 253 256
167 168 169 167 162 160 159 161 161 159 155 151 152 158 165 172 173 180 190 199 191 187 191 212 236 249 251 246 249 247 240 229 236 247 253 255 257 258 259 261 263 263 260 256 255 256 257 259 259 258 257 257 258 260 260 259 258 257 257 257 257 256 256 256 255 254 253 252 253
171 172 171 168 164 162 161 161 155 149 145 146 154 163 170 176 182 191 196 196 185 181 188 205 227 244 255 258 260 258 252 242 238 245 252 257 258 258 257 258 260 262 261 257 256 255 255 256 257 257 257 257 258 259 260 261 261 260 258 258 257 255 255 255 255 255 254 253 252
174 172 169 164 162 159 155 148 141 138 140 148 160 168 176 183 192 196 195 186 180 185 196 210 223 235 245 251 255 258 260 261 252 250 253 257 260 260 259 256 257 259 261 260 257 256 255 256 256 255 255 256 256 256 256 257 258 260 260 260 259 258 257 256 255 254 254 253 252
172 167 161 158 153 147 141 134 132 134 141 155 168 177 185 194 196 194 189 184 188 199 210 218 224 231 236 240 245 253 264 273 271 266 261 256 259 261 261 256 252 253 255 257 255 253 254 257 256 253 250 249 250 251 252 251 253 255 258 259 260 260 259 257 255 254 254 253 253
163 157 151 144 140 136 134 131 134 142 155 172 179 185 189 195 192 188 186 191 202 211 219 227 229 231 233 235 237 244 256 267 273 274 272 265 261 260 259 255 249 248 250 253 252 251 252 253 250 246 242 240 241 243 244 243 245 247 251 255 259 261 262 260 257 256 255 254 255
153 147 142 139 137 136 135 138 149 162 175 183 182 184 188 193 188 188 194 209 219 223 227 235 238 236 234 236 238 240 244 251 260 267 272 274 269 264 259 255 250 247 247 250 258 263 266 268 264 255 243 237 236 237 238 237 238 241 245 250 255 260 264 265 262 258 256 256 255
146 143 143 143 141 142 147 157 166 175 181 182 181 187 192 192 186 187 201 228 237 238 237 240 246 246 244 242 247 247 246 245 246 252 259 267 271 270 265 258 254 250 249 254 264 270 275 279 281 280 274 258 250 247 247 246 242 241 244 248 252 257 263 267 267 265 261 259 257
145 145 146 143 143 151 162 168 170 177 184 189 192 194 193 184 177 183 206 234 246 250 252 249 249 252 253 251 254 255 254 250 245 244 246 252 261 265 267 264 260 255 255 260 268 273 278 283 286 288 288 282 272 264 260 259 253 249 247 248 250 253 256 261 265 267 267 265 261
153 150 147 143 152 162 169 168 176 187 197 199 196 191 182 171 173 189 212 235 251 261 263 257 248 244 244 249 250 252 252 253 250 246 243 244 250 256 260 263 261 260 262 266 272 278 282 286 288 290 291 289 281 269 260 258 257 254 252 250 250 251 252 255 259 262 264 265 263
156 152 150 154 166 172 175 178 192 198 201 196 186 177 169 169 182 200 220 239 254 259 258 254 248 238 235 243 247 249 251 252 249 247 245 245 249 252 254 257 259 262 265 269 275 281 285 288 289 290 290 291 286 276 262 257 258 258 257 255 253 252 252 253 256 258 259 261 262
156 154 157 166 173 180 186 194 199 198 192 179 169 166 170 182 202 217 229 240 246 247 245 240 240 242 244 244 249 253 254 253 250 246 244 246 250 253 254 255 255 259 265 270 276 282 285 288 288 289 290 291 289 284 272 261 259 259 260 260 257 255 254 256 257 258 259 260 262
156 158 163 170 179 189 196 199 193 183 171 162 165 172 186 205 221 226 229 231 236 239 237 227 236 243 247 247 250 253 256 257 255 250 245 245 250 254 256 257 256 259 265 270 276 281 285 287 288 289 291 292 292 288 277 267 262 260 259 260 258 256 256 257 257 258 258 259 261
158 161 166 175 188 196 200 193 178 167 163 164 175 188 204 219 225 225 221 220 230 238 241 237 240 246 251 253 252 252 253 256 255 251 247 243 247 251 255 259 257 260 265 270 276 280 283 286 288 290 292 293 292 288 280 272 266 261 258 257 256 255 254 257 259 260 259 259 260
160 164 171 182 194 199 198 181 169 163 164 172 188 203 215 226 231 231 228 225 227 232 237 239 241 245 249 251 251 252 252 251 251 250 248 246 245 249 255 260 260 262 266 271 276 280 284 287 289 291 292 293 292 289 283 275 270 265 262 259 257 255 255 255 259 261 261 261 260
162 168 178 190 198 200 195 176 166 162 169 189 207 216 220 228 237 240 238 229 222 221 225 231 235 238 241 242 245 250 253 255 253 251 250 248 247 250 255 259 260 263 267 272 277 282 286 288 289 290 291 292 291 288 282 276 273 270 268 267 265 262 259 258 258 259 261 261 261
166 173 184 196 201 201 193 178 168 169 184 210 226 229 229 230 235 238 238 233 224 222 224 229 231 235 239 241 242 246 252 257 258 256 253 251 249 252 255 257 259 263 266 272 277 281 285 287 288 290 291 291 289 284 277 274 272 270 269 270 270 268 266 263 262 261 261 260 259
170 177 187 198 202 201 195 184 178 185 205 224 233 237 237 235 235 234 232 230 227 228 231 233 232 235 240 242 242 243 245 249 254 256 255 251 248 250 254 257 260 263 267 271 276 281 284 286 287 289 290 290 286 279 273 270 270 269 269 270 270 269 267 265 263 262 261 260 257
175 180 186 195 200 201 197 186 187 203 220 230 234 237 239 240 239 233 223 212 219 229 236 236 236 237 239 241 243 243 243 243 247 252 255 253 249 249 253 258 261 264 267 271 275 279 282 284 286 288 289 288 282 275 272 270 269 269 269 269 268 266 264 263 262 259 257 255 253
178 181 185 192 199 200 197 190 199 214 226 234 236 236 236 237 240 233 221 205 213 225 236 240 239 240 240 241 245 247 247 245 245 248 252 254 250 249 251 258 262 264 266 269 273 276 280 283 285 287 287 284 279 274 272 271 270 269 269 268 268 265 262 261 259 256 252 248 251
178 180 184 190 198 201 200 201 211 220 228 235 239 239 239 237 237 233 223 208 209 219 231 240 242 244 244 244 249 253 254 252 247 246 249 252 251 250 251 255 260 262 263 265 270 274 278 282 284 285 285 283 277 272 269 269 269 268 268 268 269 267 263 259 256 253 249 245 251
174 177 182 190 197 202 206 213 221 225 228 233 239 242 241 239 240 239 232 219 215 221 230 240 246 249 250 250 253 257 259 259 253 248 247 250 253 255 256 256 259 260 262 265 270 274 277 280 282 283 283 281 273 265 262 262 265 266 266 266 267 268 266 261 256 254 251 248 252
167 173 181 192 199 205 211 221 229 231 232 232 238 241 243 244 245 244 240 233 230 231 236 243 249 253 255 256 257 259 262 264 260 255 251 251 255 257 259 259 260 261 263 266 269 273 275 278 279 280 280 277 269 259 254 255 260 263 264 264 264 266 268 267 263 259 256 254 253